Flag for Ireland Weather past 2 weeks in Galway, Ireland

Now
48 °F

Passing clouds.


Feels Like: 45 °F
Forecast: 38 / 47 °F
Wind: 7 mph from North

Location: Shannon Airport

Current Time: Apr 26, 2015 at 12:52:17 PM

Latest Report: Apr 26, 2015 at 12:00 PM


Visibility: N/A

Pressure: 29.95 "Hg

Humidity: 50%

Dew point: 30 °F

Location of GalwayLocation

Historic Weather in Galway — Graph

°F

Galway temperature yesterday

Maximum temperature yesterday: 52 °F (at 12:00 AM)
Minimum temperature yesterday: 41 °F (at 10:00 PM)
Average temperature yesterday: 49 °F

Past Weeks' High & Low Weather Summary

 TemperatureHumidityPressure
High68 °F (Apr 22, 5:00 PM)100% (Apr 21, 7:00 AM)30.60 "Hg (Apr 21, 7:00 AM)
Low32 °F (Apr 26, 5:30 AM)30% (Apr 22, 5:00 PM)29.56 "Hg (Apr 25, 3:30 AM)
Average50 °F71%30.14 "Hg
* Reported Apr 11 11:00 AM — Apr 26 11:30 AM, Galway, Weather by CustomWeather, © 2015

Note: Actual official high and low records may vary slightly from our data, if they occured in-between our weather recording intervals... More about our weather records

Advertising

Galway weather history for previous 24 hours

 ConditionsComfort  
Time TempWeatherWind HumidityBarometerVisibility
11:30 AM
Sun, Apr 26
48 °FPassing clouds.5 mph54%29.95 "HgN/A
11:00 AM48 °FPassing clouds.5 mph54%29.95 "HgN/A
10:30 AM46 °FScattered clouds.3 mph57%29.95 "HgN/A
10:00 AM45 °FScattered clouds.2 mph66%29.95 "HgN/A
9:30 AM43 °FSunny.2 mph71%29.95 "Hg10 mi
9:00 AM41 °FSunny.2 mph70%29.95 "Hg10 mi
8:30 AM37 °FSunny.3 mph81%29.95 "Hg10 mi
8:00 AM36 °FSunny.5 mph87%29.95 "Hg10 mi
7:30 AM34 °FSunny.6 mph93%29.95 "Hg10 mi
7:00 AM32 °FClear.5 mph93%29.92 "Hg10 mi
6:30 AM32 °FClear.6 mph93%29.92 "Hg10 mi
6:00 AM32 °FClear.7 mph87%29.92 "Hg10 mi
5:30 AM32 °FClear.8 mph93%29.92 "Hg10 mi
5:00 AM34 °FClear.9 mph87%29.92 "Hg10 mi
4:00 AM34 °FClear.9 mph87%29.89 "Hg10 mi
3:30 AM34 °FClear.10 mph93%29.89 "Hg10 mi
3:00 AM34 °FClear.6 mph93%29.89 "Hg10 mi
2:30 AM36 °FClear.6 mph87%29.89 "Hg10 mi
2:00 AM36 °FClear.9 mph87%29.89 "Hg10 mi
1:30 AM36 °FPassing clouds.8 mph87%29.89 "HgN/A
1:00 AM37 °FPassing clouds.8 mph81%29.89 "HgN/A
12:30 AM37 °FPassing clouds.5 mph81%29.86 "HgN/A
12:00 AM39 °FPassing clouds.7 mph75%29.86 "HgN/A
11:30 PM
Sat, Apr 25
41 °FPassing clouds.9 mph70%29.86 "HgN/A
11:00 PM43 °FPassing clouds.8 mph66%29.83 "HgN/A
10:00 PM41 °FPassing clouds.5 mph87%29.83 "HgN/A
9:30 PM43 °FPassing clouds.5 mph81%29.83 "HgN/A
9:00 PM46 °FPassing clouds.3 mph66%29.80 "HgN/A
8:30 PM48 °FPassing clouds.3 mph62%29.80 "HgN/A
8:00 PM48 °FPassing clouds.6 mph62%29.77 "HgN/A
7:30 PM48 °FScattered clouds.6 mph62%29.77 "HgN/A
7:00 PM52 °FPartly sunny.9 mph54%29.77 "HgN/A
6:30 PM52 °FPartly sunny.10 mph54%29.74 "HgN/A
6:00 PM50 °FBroken clouds.12 mph62%29.74 "HgN/A
5:30 PM50 °FPartly sunny.10 mph62%29.74 "HgN/A
5:00 PM50 °FPartly sunny.13 mph58%29.74 "HgN/A
4:30 PM50 °FPartly sunny.12 mph62%29.71 "HgN/A
4:00 PM50 °FPartly sunny.12 mph58%29.71 "HgN/A
3:30 PM50 °FScattered clouds.15 mph62%29.71 "HgN/A
3:00 PM50 °FScattered clouds.15 mph67%29.71 "HgN/A
2:30 PM48 °FPartly sunny.15 mph71%29.71 "HgN/A
2:00 PM46 °FPartly sunny.3 mph76%29.71 "HgN/A
1:30 PM46 °FPartly sunny.14 mph82%29.68 "HgN/A
1:00 PM46 °FPartly sunny.14 mph82%29.68 "HgN/A
12:30 PM46 °FPartly sunny.16 mph82%29.68 "HgN/A
12:00 PM45 °FBroken clouds.18 mph87%29.65 "HgN/A
Weather by CustomWeather, © 2015

See weather overviewHow to use our weather pages